Home   Weather   Miskolc   Past weeks

Flag for Hungary Past Weather in Miskolc, Hungary — Yesterday and Last 2 Weeks

Now
23 °F

Fog.


Feels Like: 23 °F
Forecast: 21 / 32 °F
Wind: 2 mph from Northwest

Location: Miskolc

Current Time: Jan 16, 2017 at 6:24:52 pm

Latest Report: Jan 16, 2017 at 5:00 pm


Visibility: 1 mi

Pressure: 30.21 "Hg

Humidity: 90%

Dew Point: 20 °F

Location of MiskolcLocation

Past Weather in Miskolc — Graph

°F

Miskolc Temperature Yesterday

Maximum temperature yesterday: 33 °F (at 2:00 pm)
Minimum temperature yesterday: 18 °F (at 11:00 pm)
Average temperature yesterday: 22 °F

High & Low Weather Summary for the Past Weeks

 TemperatureHumidityPressure
High39 °F (Jan 14, 1:00 pm)91% (Jan 13, 2:00 pm)30.48 "Hg (Jan 13, 2:00 pm)
Low3 °F (Jan 7, 7:00 am)33% (Jan 7, 12:00 pm)29.38 "Hg (Jan 14, 5:00 am)
Average21 °F71%30.07 "Hg
* Reported Jan 1 5:00 pm — Jan 16 5:00 pm, Miskolc, Weather by CustomWeather, © 2017

Note: Actual official high and low records may vary slightly from our data, if they occured in-between our weather recording intervals... More about our weather records

Advertising

Miskolc Weather History for the Previous 24 Hours

Scroll right to see more
 ConditionsComfort  
Time TempWeatherWind HumidityBarometerVisibility
5:00 pm
Mon, Jan 16
23 °FFog.2 mph90%30.21 "Hg1 mi
4:00 pm23 °FFog.2 mph90%30.21 "Hg1 mi
3:00 pm24 °FFog.2 mph90%30.21 "Hg1 mi
2:00 pm24 °FFog.1 mph90%30.21 "Hg1 mi
1:00 pm23 °FFog.1 mph90%30.21 "Hg1 mi
12:00 pm22 °FFog.1 mph89%30.22 "Hg1 mi
11:00 am21 °FFog.1 mph89%30.23 "Hg1 mi
10:00 am19 °FFog.1 mph88%30.24 "Hg1 mi
9:00 am18 °FFog.1 mph88%30.24 "Hg1 mi
8:00 am15 °FFog.1 mph87%30.23 "Hg1 mi
7:00 am13 °FFog.1 mph86%30.22 "Hg1 mi
6:00 am14 °FFog.1 mph86%30.21 "Hg1 mi
5:00 am14 °FFog.1 mph87%30.20 "Hg1 mi
4:00 am15 °FFog.1 mph87%30.20 "Hg1 mi
3:00 am16 °FFog.1 mph87%30.19 "Hg1 mi
2:00 am18 °FFog.1 mph88%30.19 "Hg1 mi
1:00 am18 °FFog.1 mph88%30.20 "Hg1 mi
12:00 am17 °FFog.1 mph89%30.20 "Hg1 mi
11:00 pm
Sun, Jan 15
18 °FFog.1 mph88%30.20 "Hg0 mi
10:00 pm18 °FFog.1 mph88%30.19 "Hg0 mi
9:00 pm19 °FFog.1 mph88%30.17 "Hg0 mi
8:00 pm19 °FFog.1 mph89%30.17 "Hg0 mi
7:00 pm19 °FFog.1 mph88%30.16 "Hg1 mi
6:00 pm18 °FFog.1 mph88%30.14 "Hg0 mi
Weather by CustomWeather, © 2017

See weather overviewHow to use our weather pages